Regional Weather Roundup
Issued by NWS

Home | Current Version | Previous Version | Graphics & Text | Print | Product List | Glossary On
Versions: 1 2 3 4 5 6 7 8 9 10 11 12 13 14 15 16 17 18 19 20 21 22 23 24 25 26 27 28
000
ASUS45 KCYS 221810
RWRWY

WYOMING REGIONAL WEATHER ROUNDUP
NATIONAL WEATHER SERVICE CHEYENNE WY
1200 PM MDT SUN OCT 22 2017

NOTE:  "FAIR" INDICATES FEW OR NO CLOUDS BELOW 12,000 FEET
WITH NO SIGNIFICANT WEATHER AND/OR OBSTRUCTIONS TO VISIBILITY.

WYZ001-221900-
YELLOWSTONE NATIONAL PARK

CITY           SKY/WX    TMP DP  RH WIND       PRES   REMARKS
LK YELLOWSTONE   N/A     37  33  85 W12G28    30.16F WCI  29
6HR MIN TEMP:  30; 6HR MAX TEMP:  37; 6HR PCP:  0.07;

W YELLOWSTONE  NOT AVBL

$$
WYZ002>013-054>058-071-098>099-221900-
NORTHERN WYOMING

CITY           SKY/WX    TMP DP  RH WIND       PRES   REMARKS
JACKSON        CLOUDY    44  32  62 SW20G28   30.26R
CODY           FAIR      55  31  39 W21G30    30.00F
GREYBULL       FAIR      52  24  33 SW8       30.01S
6HR MIN TEMP:  31; 6HR MAX TEMP:  52;

WORLAND        FAIR      48  28  46 NW5       30.02R
6HR MIN TEMP:  26; 6HR MAX TEMP:  48;

SHERIDAN       FAIR      64  29  26 W16G30    29.87F
6HR MIN TEMP:  29; 6HR MAX TEMP:  66;

BUFFALO        FAIR      66  23  19 W8        29.93S
6HR MIN TEMP:  33; 6HR MAX TEMP:  66;

GILLETTE       FAIR      59  26  28 SW28G35   29.91F
6HR MIN TEMP:  42; 6HR MAX TEMP:  59;

HULETT         FAIR      57  27  30 SW18G25   29.91F
NEWCASTLE      FAIR      52  23  32 SE7       29.99F

$$
WYZ014>020-022>026-101>103-221900-
CENTRAL WYOMING

CITY           SKY/WX    TMP DP  RH WIND       PRES   REMARKS
BIG PINEY      FAIR      47  27  45 VRB3      30.31S
6HR MIN TEMP:  16; 6HR MAX TEMP:  47;

PINEDALE       CLOUDY    45  28  53 NW6       30.32S
DUBOIS         CLOUDY    46  28  49 NW24G38   30.20R
LANDER         FAIR      53  27  36 CALM      30.09R
6HR MIN TEMP:  30; 6HR MAX TEMP:  53;

RIVERTON       FAIR      52  26  36 S7        30.09S
6HR MIN TEMP:  32; 6HR MAX TEMP:  52;

CASPER         LGT RAIN  55  26  32 SW30G41   30.09S
6HR MIN TEMP:  40; 6HR MAX TEMP:  55; 6HR PCP: TRACE;

DOUGLAS        FAIR      58  26  29 W18G28    30.04F
6HR MIN TEMP:  36; 6HR MAX TEMP:  60;


$$
WYZ021-027>030-104>119-221900-
SOUTHERN WYOMING

CITY           SKY/WX    TMP DP  RH WIND       PRES   REMARKS
EVANSTON       FAIR      52  30  43 SW20G35   30.38F
6HR MIN TEMP:  36; 6HR MAX TEMP:  52;

KEMMERER       FAIR      48  30  49 W35G47    30.34S
FORT BRIDGER   FAIR      55  31  40 W30G39    30.38S
ROCK SPRINGS   FAIR      49  27  42 W23G35    30.33F
6HR MIN TEMP:  36; 6HR MAX TEMP:  50;

DIXON          FAIR      49  25  38 S16G24    30.41F
RAWLINS        FAIR      48  25  40 SW31G40   30.28F
6HR MIN TEMP:  36; 6HR MAX TEMP:  49;

SARATOGA       FAIR      45  27  49 SW20G29   30.34F
LARAMIE        FAIR      54  23  30 SW30G39   30.20R
6HR MIN TEMP:  34; 6HR MAX TEMP:  54;

CHEYENNE       FAIR      58  24  27 W31G38    30.15F
6HR MIN TEMP:  43; 6HR MAX TEMP:  58;

TORRINGTON     FAIR      64  25  22 W25G35    30.05F
6HR MIN TEMP:  46; 6HR MAX TEMP:  64;

PINE BLUFFS    FAIR      61  23  23 W25G36    30.13F

$$




USA.gov is the U.S. government's official web portal to all federal, state and local government web resources and services.